Location: Clair
(33.8067°N, 117.9845°W)
Time: 08:37:31
(UTC+00:00)

Thor Agena Rocket - Pass Details

Date: 14 February 2026
Orbit: 755 x 801 km, 99.1° (Epoch: 12 March)

Event Time Altitude Azimuth Distance (km) Brightness Sun altitude
Rises 14:09:12 0° 16° (NNE) 3,310 6.9 -6.5°
Reaches altitude 10° 14:11:33 10° 19° (NNE) 2,379 6.2 -6.0°
Maximum altitude 14:16:48 69° 102° (ESE) 856 4.1 -4.9°
Drops below altitude 10° 14:22:01 10° 186° (S) 2,364 6.1 -3.9°
Sets 14:24:20 0° 189° (S) 3,288 6.8 -3.4°
